Weather History for KPTT - May, 2013

Change the Weather History Date:

Monday, May 20, 2013

  Actual Average (KP28) Record (KP28)
Temperature  
Mean Temperature 62 °F 68 °F  
Max Temperature 73 °F 81 °F 100 °F (1956)
Min Temperature 51 °F 57 °F 36 °F (1981)
Degree Days  
Heating Degree Days 3 2  
Month to date heating degree days 62  
Since 1 July heating degree days 4447  
Cooling Degree Days 0 5  
Month to date cooling degree days 63  
Year to date cooling degree days 87  
Growing Degree Days 12 (Base 50)    
Moisture  
Dew Point 52 °F    
Average Humidity 73    
Maximum Humidity 94    
Minimum Humidity 44    
Precipitation  
Precipitation 0.00 in 0.11 in 2.21 in (1899)
Month to date precipitation 1.99  
Year to date precipitation 8.43  
Snow  
Snow 0.00 in 0.00 in - ()
Month to date snowfall 0.0  
Since 1 July snowfall 8.5  
Snow Depth -    
Sea Level Pressure  
Sea Level Pressure 29.77 in    
Wind  
Wind Speed 6 mph (WNW)    
Max Wind Speed 14 mph    
Max Gust Speed 22 mph    
Visibility 10 miles    
Events Rain    
T = Trace of Precipitation, MM = Missing Value Source: NWS Daily Summary

Daily Weather History Graph

Daily Weather History Graph

Search for Another Location

Airport or City:

Trip Planner

Search our weather history database for the weather conditions in past years. The results will help you decide how hot, cold, wet, or windy it might be!

Date:

Astronomy

May. 20, 2013 Rise Set
Actual Time 6:21 AM CDT 8:42 PM CDT
Civil Twilight 5:51 AM CDT 9:12 PM CDT
Nautical Twilight 5:14 AM CDT 9:48 PM CDT
Astronomical Twilight 4:34 AM CDT 10:29 PM CDT
Moon 3:56 PM CDT (5/20) 3:11 AM CDT (5/20)
Length of Visible Light 15h 20m
Length of Day
14h 21m
Waxing Gibbous, 75% of the Moon is Illuminated
May 20
Waxing Gibbous
May 24
Full
May 31
Last Quarter
Jun 8
New
Jun 16
First Quarter

Hourly Weather History & Observations

Time (CDT) Temp. Dew Point Humidity Pressure Visibility Wind Dir Wind Speed Gust Speed Precip Events Conditions
12:15 AM 59.0 °F 53.6 °F 82% 29.73 in 10.0 mi South 4.6 mph - N/A   Scattered Clouds
12:35 AM 59.0 °F 53.6 °F 82% 29.70 in 10.0 mi Calm Calm - N/A   Scattered Clouds
12:55 AM 60.8 °F 53.6 °F 77% 29.69 in 10.0 mi East 3.5 mph - N/A   Scattered Clouds
1:15 AM 60.8 °F 53.6 °F 77% 29.71 in 10.0 mi Calm Calm - N/A   Mostly Cloudy
1:35 AM 60.8 °F 53.6 °F 77% 29.70 in 10.0 mi NW 9.2 mph - N/A   Mostly Cloudy
1:55 AM 60.8 °F 51.8 °F 72% 29.73 in 10.0 mi SSE 10.4 mph - N/A   Scattered Clouds
2:15 AM 62.6 °F 50.0 °F 63% 29.72 in 10.0 mi Calm Calm - N/A   Clear
2:35 AM 60.8 °F 50.0 °F 68% 29.72 in 10.0 mi Calm Calm - N/A   Clear
2:55 AM 59.0 °F 51.8 °F 77% 29.73 in 10.0 mi WSW 3.5 mph - N/A   Clear
3:15 AM 55.4 °F 51.8 °F 88% 29.73 in 10.0 mi West 3.5 mph - N/A   Clear
3:35 AM 53.6 °F 51.8 °F 94% 29.74 in 10.0 mi West 3.5 mph - N/A   Clear
3:55 AM 55.4 °F 51.8 °F 88% 29.73 in 10.0 mi WNW 9.2 mph - N/A   Clear
4:15 AM 55.4 °F 51.8 °F 88% 29.74 in 10.0 mi West 5.8 mph - N/A   Clear
4:35 AM 53.6 °F 51.8 °F 94% 29.74 in 10.0 mi West 6.9 mph - N/A   Clear
4:55 AM 53.6 °F 51.8 °F 94% 29.75 in 10.0 mi WNW 6.9 mph - N/A   Clear
5:15 AM 53.6 °F 51.8 °F 94% 29.75 in 10.0 mi WNW 6.9 mph - N/A   Clear
5:35 AM 51.8 °F 50.0 °F 94% 29.76 in 10.0 mi West 3.5 mph - N/A   Clear
5:55 AM 51.8 °F 50.0 °F 94% 29.76 in 10.0 mi Calm Calm - N/A   Clear
6:15 AM 51.8 °F 50.0 °F 94% 29.77 in 10.0 mi Calm Calm - N/A   Clear
6:35 AM 51.8 °F 50.0 °F 94% 29.76 in 10.0 mi NW 4.6 mph - N/A   Clear
6:55 AM 53.6 °F 50.0 °F 88% 29.77 in 10.0 mi NNW 5.8 mph - N/A   Clear
7:15 AM 53.6 °F 50.0 °F 88% 29.78 in 10.0 mi NNW 6.9 mph - N/A   Clear
7:35 AM 55.4 °F 50.0 °F 82% 29.80 in 10.0 mi Calm Calm - N/A   Clear
7:55 AM 55.4 °F 51.8 °F 88% 29.80 in 10.0 mi NW 5.8 mph - N/A   Clear
8:15 AM 55.4 °F 51.8 °F 88% 29.81 in 10.0 mi NNW 10.4 mph - N/A   Mostly Cloudy
8:35 AM 55.4 °F 51.8 °F 88% 29.78 in 10.0 mi NNW 11.5 mph - N/A   Mostly Cloudy
8:55 AM 55.4 °F 51.8 °F 88% 29.79 in 10.0 mi NNW 10.4 mph - N/A   Mostly Cloudy
9:15 AM 57.2 °F 51.8 °F 82% 29.81 in 10.0 mi NW 9.2 mph - N/A   Mostly Cloudy
9:35 AM 59.0 °F 51.8 °F 77% 29.82 in 10.0 mi NW 6.9 mph - N/A   Scattered Clouds
9:55 AM 59.0 °F 51.8 °F 77% 29.84 in 10.0 mi WNW 5.8 mph - N/A   Scattered Clouds
10:15 AM 59.0 °F 51.8 °F 77% 29.81 in 10.0 mi NNW 5.8 mph - N/A Rain Light Rain
10:35 AM 59.0 °F 51.8 °F 77% 29.80 in 10.0 mi ENE 4.6 mph - N/A Rain Light Rain
10:55 AM 59.0 °F 51.8 °F 77% 29.81 in 10.0 mi NNW 5.8 mph - N/A   Mostly Cloudy
11:15 AM 59.0 °F 51.8 °F 77% 29.81 in 10.0 mi NW 4.6 mph - N/A   Scattered Clouds
11:35 AM 60.8 °F 53.6 °F 77% 29.80 in 10.0 mi North 4.6 mph - N/A   Mostly Cloudy
11:55 AM 60.8 °F 53.6 °F 77% 29.81 in 10.0 mi WNW 10.4 mph - N/A   Scattered Clouds
12:15 PM 60.8 °F 53.6 °F 77% 29.79 in 10.0 mi NW 6.9 mph - N/A   Mostly Cloudy
12:35 PM 60.8 °F 53.6 °F 77% 29.81 in 10.0 mi WNW 8.1 mph - N/A   Mostly Cloudy
12:55 PM 60.8 °F 53.6 °F 77% 29.77 in 10.0 mi NNW 11.5 mph - N/A   Mostly Cloudy
1:15 PM 62.6 °F 53.6 °F 72% 29.77 in 10.0 mi NNW 11.5 mph 21.9 mph N/A   Mostly Cloudy
1:35 PM 62.6 °F 55.4 °F 77% 29.76 in 10.0 mi NW 10.4 mph - N/A   Mostly Cloudy
1:55 PM 62.6 °F 55.4 °F 77% 29.76 in 10.0 mi NNW 12.7 mph - N/A   Mostly Cloudy
2:15 PM 64.4 °F 55.4 °F 73% 29.78 in 10.0 mi Calm Calm - N/A   Mostly Cloudy
2:35 PM 64.4 °F 55.4 °F 73% 29.77 in 10.0 mi South 4.6 mph - N/A   Mostly Cloudy
2:55 PM 64.4 °F 55.4 °F 73% 29.78 in 10.0 mi South 6.9 mph - N/A   Scattered Clouds
3:15 PM 68.0 °F 55.4 °F 64% 29.78 in 10.0 mi South 8.1 mph - N/A   Clear
3:35 PM 69.8 °F 55.4 °F 60% 29.78 in 10.0 mi South 8.1 mph - N/A   Clear
4:15 PM 69.8 °F 55.4 °F 60% 29.76 in 10.0 mi South 5.8 mph - N/A   Clear
4:35 PM 71.6 °F 55.4 °F 57% 29.76 in 10.0 mi SSE 4.6 mph - N/A   Clear
4:55 PM 71.6 °F 55.4 °F 57% 29.75 in 7.0 mi Calm Calm - N/A   Clear
5:15 PM 73.4 °F 57.2 °F 57% 29.74 in 10.0 mi SSW 5.8 mph - N/A   Clear
5:35 PM 73.4 °F 57.2 °F 57% 29.74 in 10.0 mi South 4.6 mph - N/A   Clear
5:55 PM 73.4 °F 57.2 °F 57% 29.74 in 10.0 mi SSW 6.9 mph - N/A   Clear
6:15 PM 73.4 °F 57.2 °F 57% 29.74 in 10.0 mi SSW 5.8 mph - N/A   Clear
6:35 PM 73.4 °F 59.0 °F 61% 29.74 in 10.0 mi SSW 5.8 mph - N/A   Clear
6:55 PM 71.6 °F 59.0 °F 64% 29.74 in 10.0 mi SW 3.5 mph - N/A   Clear
7:15 PM 73.4 °F 50.0 °F 44% 29.75 in 10.0 mi NW 6.9 mph - N/A   Scattered Clouds
7:35 PM 71.6 °F 50.0 °F 46% 29.75 in 10.0 mi NW 11.5 mph - N/A   Clear
7:55 PM 69.8 °F 50.0 °F 49% 29.76 in 10.0 mi NW 9.2 mph - N/A   Clear
8:15 PM 69.8 °F 50.0 °F 49% 29.76 in 10.0 mi NW 9.2 mph - N/A   Clear
8:35 PM 66.2 °F 51.8 °F 60% 29.77 in 10.0 mi NW 5.8 mph - N/A   Clear
8:55 PM 64.4 °F 50.0 °F 59% 29.78 in 10.0 mi NW 9.2 mph - N/A   Clear
9:15 PM 62.6 °F 50.0 °F 63% 29.78 in 10.0 mi NW 11.5 mph - N/A   Clear
9:35 PM 62.6 °F 50.0 °F 63% 29.78 in 10.0 mi NW 6.9 mph - N/A   Clear
9:55 PM 60.8 °F 50.0 °F 68% 29.80 in 10.0 mi NW 11.5 mph - N/A   Clear
10:15 PM 62.6 °F 48.2 °F 59% 29.82 in 10.0 mi NW 9.2 mph - N/A   Clear
10:35 PM 60.8 °F 46.4 °F 59% 29.81 in 10.0 mi NNW 13.8 mph - N/A   Clear
10:55 PM 60.8 °F 46.4 °F 59% 29.83 in 10.0 mi NNW 11.5 mph - N/A   Clear
11:15 PM 60.8 °F 44.6 °F 55% 29.84 in 10.0 mi NNW 11.5 mph - N/A   Clear
11:35 PM 60.8 °F 44.6 °F 55% 29.85 in 10.0 mi NNW 11.5 mph - N/A   Clear
11:55 PM 59.0 °F 44.6 °F 59% 29.86 in 10.0 mi NW 12.7 mph - N/A   Clear